Flight Track Log - Related Links

Times and Time Zones

All times are in EDT time to prevent confusion due to time zone crossing. See the N425QS flight status page for this flight to view local times or setup timezone preferences in your user account.

Time Position Orientation Groundspeed Altitude Reporting Facility
EDT Latitude Longitude Course Direction KTS MPH feet Rate Location/Type
Sun 01:26:02 PM 37.3833 -121.9500 137° Southeast 187 215 1,900  Level Northern Cal TRACON
Sun 01:27:02 PM 37.4333 -121.9667 345° North 209 241 4,500 1,525 Climbing Northern Cal TRACON
Sun 01:29:03 PM 37.3747 -121.8372 120° Southeast 230 265 6,500 1,377 Climbing Oakland Center
Sun 01:30:05 PM 37.3239 -121.7822 139° Southeast 266 306 8,700 2,195 Climbing Oakland Center
Sun 01:31:00 PM 37.3607 -121.9269 137° Southeast  Level Estimated
Sun 01:31:06 PM 37.2450 -121.6931 138° Southeast 316 364 11,000  Level Oakland Center
Sun 01:32:07 PM 37.1669 -121.6033 137° Southeast 376 433 12,900 1,902 Climbing Oakland Center
Sun 01:33:09 PM 37.0836 -121.5125 139° Southeast 403 464 14,900 2,244 Climbing Oakland Center
Sun 01:34:10 PM 36.9875 -121.4056 138° Southeast 415 478 17,500 2,341 Climbing Oakland Center
Sun 01:35:12 PM 36.8978 -121.3067 139° Southeast 430 495 19,700 2,146 Climbing Oakland Center
Sun 01:36:13 PM 36.8136 -121.2161 139° Southeast 444 511 21,900 2,262 Climbing Oakland Center
Sun 01:37:14 PM 36.7169 -121.1119 139° Southeast 456 525 24,300 2,244 Climbing Oakland Center
Sun 01:38:16 PM 36.5947 -120.9817 139° Southeast 477 549 26,500 1,317 Climbing Oakland Center
Sun 01:39:17 PM 36.4878 -120.8656 139° Southeast 503 579 27,000 244 Climbing Oakland Center
Sun 01:40:19 PM 36.3761 -120.7456 139° Southeast 525 604 27,000  Level Oakland Center
Sun 01:41:20 PM 36.2631 -120.6261 140° Southeast 531 611 27,000  Level Oakland Center
Sun 01:42:22 PM 36.1506 -120.5067 139° Southeast 532 612 27,000  Level Oakland Center
Sun 01:43:23 PM 36.0372 -120.3844 139° Southeast 538 619 27,000  Level Oakland Center
Sun 01:44:25 PM 35.9267 -120.2706 140° Southeast 516 594 27,000  Level Oakland Center
Sun 01:45:26 PM 35.8125 -120.1511 140° Southeast 529 609 27,000  Level Oakland Center
Sun 01:46:28 PM 35.7000 -120.0336 140° Southeast 527 606 27,000 -341 Level Oakland Center
Sun 01:47:29 PM 35.5850 -119.9239 142° Southeast 520 598 26,300 -829 Descending Oakland Center
Sun 01:48:31 PM 35.4731 -119.8281 145° Southeast 492 566 25,300 -1,095 Descending Oakland Center
Sun 01:49:35 PM 35.3408 -119.7153 145° Southeast 483 556 24,000 -619 Descending Los Angeles Center
Sun 01:50:37 PM 35.2314 -119.6208 145° Southeast 481 554 24,000  Level Los Angeles Center
Sun 01:51:39 PM 35.1239 -119.5289 145° Southeast 473 544 24,000 -435 Level Los Angeles Center
Sun 01:52:41 PM 35.0161 -119.4369 145° Southeast 472 543 23,100 -1,597 Descending Los Angeles Center
Sun 01:53:43 PM 34.9108 -119.3472 145° Southeast 464 534 20,700 -2,516 Descending Los Angeles Center
Sun 01:54:45 PM 34.7906 -119.2444 145° Southeast 440 506 17,900 -2,468 Descending Los Angeles Center
Sun 01:55:47 PM 34.6942 -119.1636 145° Southeast 424 488 15,600 -2,081 Descending Los Angeles Center
Sun 01:56:49 PM 34.6011 -119.0883 146° Southeast 377 434 13,600 -1,839 Descending Los Angeles Center
Sun 01:57:51 PM 34.5244 -119.0236 145° Southeast 335 386 11,800 -1,210 Descending Los Angeles Center
Sun 01:58:53 PM 34.4489 -118.9586 145° Southeast 333 383 11,100 -726 Descending Los Angeles Center
Sun 01:59:55 PM 34.3864 -118.8850 136° Southeast 307 353 10,300 -1,452 Descending Los Angeles Center
Sun 02:00:57 PM 34.3747 -118.7844 98° East 303 349 8,100 -1,824 Descending Los Angeles Center
Sun 02:02:00 PM 34.3633 -118.6944 99° East 275 316 6,500 -1,488 Descending Los Angeles Center
Sun 02:03:02 PM 34.3531 -118.5956 97° East 250 288 5,000 -1,065 Descending Los Angeles Center
Sun 02:04:04 PM 34.3433 -118.5269 100° East 222 255 4,300 -968 Descending Los Angeles Center
Sun 02:05:06 PM 34.2944 -118.5008 156° South 196 226 3,000 -1,210 Descending Los Angeles Center
Sun 02:06:08 PM 34.2522 -118.4942 173° South 169 194 1,800 -871 Descending Los Angeles Center
Sun 02:07:10 PM 34.2097 -118.4903 176° South 156 180 1,200 -581 Descending Los Angeles Center
Sun 02:09:00 PM 34.2098 -118.4900 180° South  Level Estimated

Login

Don't have an account? Register now (free) for customized features, flight alerts, and more!